THORAD AGENA D DEB, 42550

Orbit data source: Space-Track

THORAD AGENA D DEB, 42550 is space debris in SSO originally from a launch on Wed, 08 Apr 1970 UTC launched from the Air Force Western Test Range (AFWTR). Debris objects in space refer to the collection of defunct objects orbiting the Earth. Examples of debris include non-operational satellites, rocket bodies, and fragments generated from explosions, collisions, or faulty payload assembly.

Loading next visibility...
Identifier
42550, 1970-025TG
Orbit
SSO
Country
Flag of USUS
Related business
Manufacturer
Unknown
Mission
Spacecraft
Bus & Motor
Unknown
Mass
Unknown
Launch date (UTC)
1970-04-08 (56 years ago)
Launch vehicle
Unknown
Launch site
Air Force Western Test Range (AFWTR)
Object type
Payload
Rocket body
Debris
Shape & HBR
Unknown shape, 0.1 m
Radar Cross Section
Small (<0.1 m²)

Expand to show TLE details & history
Last TLE update: 1 day ago

TLE from 1 day ago
0 THORAD AGENA D DEB
1 42550U 70025TG  26255.08495550  .00000602  00000-0  33881-3 0  9990
2 42550  99.2741 206.3164 0022170   3.9426  60.0181 14.14419652659023
Epoch: 2026-09-12T02:02Z
TLE epoch observation values (Epoch: 2026-09-12T02:02:20.155Z)
Latitude
62.76699°
Longitude
166.23595°
Altitude
847.034 km
Speed
7.439 km/s
True Right ascension
12h 31m 40s
True Declination
62° 37' 43"
Sunlit
Object was in daylight at epoch
Visualization orbit readout
Latitude
Unknown
Longitude
Unknown
Altitude
Unknown
Speed
Unknown
Apparent Right ascension
Unknown
Apparent Declination
Unknown
Sunlit
N/A
Visualization observer readout
Local Sidereal Time
02:09:25
Azimuth
Unknown
Elevation
Unknown
Doppler factor
Unknown
Orbital elements
Apogee altitude
857.487 km
Perigee altitude
825.475 km
Semi-major axis
7,219.618 km
Eccentricity
0.00222
Inclination
99.2741°
RAAN
206.3164°
Arg. of periapsis
3.9426°
True anomaly
60.23846°
Mean anomaly
60.0181°
Eccentric anomaly
60.12825°
Mean motion
3.53811 °/min
Orbital period
101.75 mins
BSTAR
0.00033881
Loading maneuver chart data...
Computing Atmospheric mass density...

Documentation

Showing up to 5 results
|